Location: Zilina
(49.2170°N, 18.7330°E)
Time: 04:35:51
(UTC+02:00)

ISS - Visible Passes

Search period start: 16 April 2024 00:00
Search period end: 26 April 2024 00:00
Orbit: 413 x 419 km, 51.6° (Epoch: 15 April)

Date Brightness Start Highest point End Pass type
(mag) Time Alt. Az. Time Alt. Az. Time Alt. Az.
21 Apr -1.1 04:47:50 10° SSE 04:49:17 12° SE 04:50:45 10° ESE visible
23 Apr -2.1 04:45:14 10° SSW 04:48:04 26° SE 04:50:55 10° E visible
24 Apr -1.6 03:57:55 14° S 03:59:25 18° SE 04:01:43 10° E visible
25 Apr -1.1 03:10:55 11° SE 03:10:55 11° SE 03:11:52 10° ESE visible
25 Apr -3.3 04:43:47 11° SW 04:46:54 53° SSE 04:50:09 10° ENE visible
